This demonstration page uses our WeatherBlox Daily Observations layout. Learn more.

Left ArrowRight Arrow

39.01783, -85.05884

Hourly Observations for July 1, 2021

Temp ( °F °C ) Dew Point ( °F °C ) Humidity (%) Winds ( mph kmh ) Pressure ( in mb ) Visibility ( mi km ) Precip ( " mm )
12:52 am 00:52 Cloudy 70 21.1 67 19.4 90 90 S 5 7 29.98 1015 10 16 0.00 0.00
1:52 am 01:52 Cloudy 69 20.6 67 19.4 93 93 SSW 3 6 29.97 1015 9 14 0.00 0.00
2:38 am 02:38 Cloudy 69 20.6 67 19.4 93 93 SSW 7 11 29.96 1014 9 14 0.00 0.00
2:52 am 02:52 Cloudy 70 21.1 67 19.4 90 90 SSW 6 9 29.95 1014 8 13 0.00 0.00
3:01 am 03:01 Cloudy with Thunderstorms 70 21.1 67 19.4 90 90 SSW 8 13 29.95 1014 7 11 0.00 0.00
3:52 am 03:52 Cloudy with Thunderstorms 70 21.1 67 19.4 90 90 SSW 7 11 29.96 1014 7 11 0.00 0.00
4:11 am 04:11 Cloudy with Thunderstorms 70 21.1 67 19.4 90 90 SW 7 11 29.96 1015 3 5 0.01 0.25
4:23 am 04:23 Cloudy with Strong Thunderstorms 70 21.1 67 19.4 90 90 SSW 5 7 29.95 1014 2 3 0.13 3.30
4:29 am 04:29 Cloudy with Thunderstorms 70 21.1 67 19.4 90 90 WSW 5 7 29.95 1014 7 11 0.14 3.56
4:35 am 04:35 Cloudy with Light Rain 70 21.1 68 20 93 93 W 5 7 29.95 1014 10 16 0.14 3.56
4:52 am 04:52 Cloudy with Light Rain 70 21.1 68 20 93 93 WSW 3 6 29.95 1014 9 14 0.14 3.56
5:52 am 05:52 Cloudy with Light Rain 70 21.1 68 20 93 93 Calm 29.94 1014 6 10 0.01 0.25
5:54 am 05:54 Cloudy with Light Rain 70 21.1 68 20 93 93 Calm 29.95 1014 6 10 0.00 0.00
6:52 am 06:52 Cloudy with Light Rain 71 21.7 68 20 90 90 W 5 7 29.95 1014 7 11 0.01 0.25
7:16 am 07:16 Cloudy with Rain 71 21.7 68 20 90 90 NW 3 6 29.95 1014 3 5 0.01 0.25
7:52 am 07:52 Cloudy with Light Rain 72 22.2 68 20 87 87 Calm 29.95 1014 5 8 0.05 1.27
8:38 am 08:38 Cloudy with Light Rain 72 22.2 67 19.4 84 84 Calm 29.94 1014 5 8 0.00 0.00
8:52 am 08:52 Cloudy with Light Rain 72 22.2 68 20 87 87 SW 3 6 29.94 1014 5 8 0.01 0.25
9:10 am 09:10 Cloudy with Light Rain 71 21.7 68 20 90 90 SW 3 6 29.94 1014 6 10 0.01 0.25
9:52 am 09:52 Cloudy with Light Rain 72 22.2 69 20.6 91 91 SSW 3 6 29.95 1014 8 13 0.02 0.51
9:59 am 09:59 Cloudy with Light Rain 72 22.2 69 20.6 91 91 S 3 6 29.94 1014 7 11 0.00 0.00
10:52 am 10:52 Cloudy with Light Rain 72 22.2 69 20.6 91 91 SSW 6 9 29.94 1014 7 11 0.03 0.76
11:11 am 11:11 Cloudy with Light Rain 72 22.2 69 20.6 91 91 SW 6 9 29.94 1014 5 8 0.01 0.25
11:37 am 11:37 Cloudy with Light Rain 72 22.2 69 20.6 91 91 SSW 5 7 29.94 1014 6 10 0.04 1.02
11:52 am 11:52 Cloudy with Light Rain 72 22.2 69 20.6 91 91 WSW 5 7 29.95 1014 8 13 0.04 1.02
12:19 pm 12:19 Cloudy with Light Rain 72 22.2 69 20.6 91 91 SW 5 7 29.93 1014 6 10 0.01 0.25
12:52 pm 12:52 Cloudy with Light Rain 72 22.2 68 20 87 87 W 6 9 29.93 1014 6 10 0.04 1.02
1:48 pm 13:48 Cloudy with Rain 72 22 70 21 94 94 W 8 13 29.93 1014 4 6 0.00 0.00
1:52 pm 13:52 Cloudy with Light Rain 72 22.2 69 20.6 91 91 W 7 11 29.93 1013 8 13 0.01 0.25
2:17 pm 14:17 Cloudy with Heavy Rain 72 22.2 68 20 87 87 W 8 13 29.92 1013 4 6 0.05 1.27
2:39 pm 14:39 Cloudy 72 22.2 68 20 87 87 N 8 13 29.92 1013 10 16 0.08 2.03
2:52 pm 14:52 Cloudy 72 22.2 68 20 87 87 N 6 9 29.92 1013 10 16 0.08 2.03
3:52 pm 15:52 Cloudy 74 23.3 68 20 82 82 NNW 7 11 29.91 1013 10 16 0.00 0.00
4:21 pm 16:21 Mostly Cloudy 74 23.3 68 20 82 82 NW 7 11 29.89 1012 10 16 0.00 0.00
4:39 pm 16:39 Mostly Cloudy 74 23.3 67 19.4 79 79 NNW 8 13 29.89 1012 10 16 0.00 0.00
4:52 pm 16:52 Mostly Cloudy 77 25 68 20 74 74 NNW 5 7 29.88 1012 10 16 0.00 0.00
5:52 pm 17:52 Mostly Cloudy 77 25 67 19.4 71 71 NNW 6 9 29.88 1012 10 16 0.00 0.00
6:52 pm 18:52 Mostly Cloudy 79 26.1 66 18.9 65 65 Calm 29.87 1012 10 16 0.00 0.00
7:52 pm 19:52 Mostly Cloudy 78 25.6 65 18.3 64 64 Calm 29.87 1012 10 16 0.00 0.00
8:36 pm 20:36 Mostly Cloudy with Nearby Thunderstorms 76 24.4 66 18.9 72 72 Calm 29.86 1011 10 16 0.00 0.00
8:52 pm 20:52 Cloudy with Thunderstorms 74 23.3 63 17.2 69 69 NNE 18 30 29.88 1012 10 16 0.00 0.00
9:03 pm 21:03 Cloudy with Thunderstorms 72 22.2 63 17.2 73 73 N 13 20 29.87 1012 9 14 0.00 0.00
9:34 pm 21:34 Mostly Cloudy with Nearby Thunderstorms 68 20 65 18.3 90 90 Calm 29.89 1012 10 16 0.08 2.03
9:52 pm 21:52 Partly Cloudy 68 20 64 17.8 87 87 SW 3 6 29.89 1012 10 16 0.08 2.03
10:52 pm 22:52 Partly Cloudy 67 19.4 64 17.8 91 91 Calm 29.90 1012 9 14 0.00 0.00
11:52 pm 23:52 Partly Cloudy 66 18.9 64 17.8 93 93 W 3 6 29.91 1013 9 14 0.00 0.00

Powered by AerisWeather